Location: *
(51.2167°N, 10.0667°E)
Time: 08:56:36
(UTC+00:00)

USA 267 - Pass Details

Date: 12 December 2019
Orbit: 1100 x 1107 km, 123.0° (Epoch: 17 January)

Event Time Altitude Azimuth Distance (km) Brightness Sun altitude
Rises 16:23:16 0° 127° (SE) 3,908 5.9 -10.4°
Reaches altitude 10° 16:25:45 10° 130° (SE) 2,953 5.3 -10.8°
Maximum altitude 16:32:16 72° 214° (SW) 1,154 3.6 -11.7°
Drops below altitude 10° 16:38:49 10° 299° (WNW) 2,965 6.1 -12.7°
Sets 16:41:19 0° 302° (WNW) 3,926 6.7 -13.0°
